Location: The Saddle
(36.8333°N, 80.3417°W)
Time: 18:15:03
(UTC-05:00)

A-11 Canister half - Pass Details

Date: 11 December 2023
Orbit: 1526 x 1682 km, 47.3° (Epoch: 25 February)

Event Time Altitude Azimuth Distance (km) Brightness Sun altitude
Rises 14:43:53 0° 182° (S) 4,848 12.5 20.6°
Reaches altitude 10° 14:48:07 10° 167° (SSE) 3,888 11.8 20.1°
Maximum altitude 14:54:47 20° 124° (SE) 3,169 10.7 19.2°
Drops below altitude 10° 15:01:30 10° 82° (E) 3,942 10.8 18.4°
Sets 15:05:45 0° 67° (ENE) 4,936 11.1 17.8°
